TimeCST,TemperatureF,Dew PointF,Humidity,Sea Level PressureIn,VisibilityMPH,Wind Direction,Wind SpeedMPH,Gust SpeedMPH,PrecipitationIn,Events,Conditions,WindDirDegrees,DateUTC
12:00 AM,77.0,75.2,94,29.83,6.2,Calm,Calm,-,N/A,,Scattered Clouds,0,2012-10-08 06:00:00
1:00 AM,77.0,73.4,89,29.83,6.2,Calm,Calm,-,N/A,,Scattered Clouds,0,2012-10-08 07:00:00
2:00 AM,77.0,73.4,89,29.83,6.2,Calm,Calm,-,N/A,,Scattered Clouds,0,2012-10-08 08:00:00
3:00 AM,77.0,73.4,89,29.80,6.2,Calm,Calm,-,N/A,,Scattered Clouds,0,2012-10-08 09:00:00
4:00 AM,77.0,73.4,89,29.80,6.2,Calm,Calm,-,N/A,,Scattered Clouds,0,2012-10-08 10:00:00
5:00 AM,75.2,73.4,94,29.83,6.2,Calm,Calm,-,N/A,,Partly Cloudy,0,2012-10-08 11:00:00
6:00 AM,75.2,73.4,94,29.83,6.2,Calm,Calm,-,N/A,,Scattered Clouds,0,2012-10-08 12:00:00
7:00 AM,78.8,73.4,83,29.83,6.2,Calm,Calm,-,N/A,,Scattered Clouds,0,2012-10-08 13:00:00
8:00 AM,82.4,75.2,79,29.86,6.2,Calm,Calm,-,N/A,,Scattered Clouds,0,2012-10-08 14:00:00
9:00 AM,86.0,73.4,66,29.86,6.2,East,6.9,-,N/A,,Scattered Clouds,100,2012-10-08 15:00:00
10:00 AM,86.0,75.2,70,29.89,6.2,SE,6.9,-,N/A,,Scattered Clouds,140,2012-10-08 16:00:00
11:00 AM,86.0,73.4,66,29.86,6.2,ESE,6.9,-,N/A,,Scattered Clouds,120,2012-10-08 17:00:00
12:00 PM,87.8,75.2,66,29.83,6.2,East,11.5,-,N/A,,Scattered Clouds,100,2012-10-08 18:00:00
1:00 PM,89.6,73.4,59,29.77,6.2,SE,13.8,-,N/A,,Scattered Clouds,140,2012-10-08 19:00:00
2:00 PM,91.4,73.4,55,29.77,6.2,East,11.5,-,N/A,,Scattered Clouds,100,2012-10-08 20:00:00
3:00 PM,91.4,73.4,55,29.77,6.2,SE,11.5,-,N/A,,Scattered Clouds,140,2012-10-08 21:00:00
4:00 PM,84.2,73.4,70,29.77,5.6,East,18.4,-,N/A,Rain,Rain,100,2012-10-08 22:00:00
4:05 PM,-9999,-9999,N/A,-9999,5.6,SE,11.5,-,N/A,Thunderstorm,Light Thunderstorm,140,2012-10-08 22:05:00
5:00 PM,80.6,71.6,74,29.83,6.2,SSE,11.5,-,N/A,,Scattered Clouds,150,2012-10-08 23:00:00
6:00 PM,77.0,71.6,83,29.83,5.6,ESE,6.9,-,N/A,Rain,Rain,110,2012-10-09 00:00:00
7:00 PM,77.0,73.4,89,29.86,5.6,SE,6.9,-,N/A,,Haze,140,2012-10-09 01:00:00
8:00 PM,77.0,73.4,89,29.89,5.6,SE,4.6,-,N/A,,Light Drizzle,140,2012-10-09 02:00:00
9:00 PM,77.0,73.4,89,29.89,5.6,Calm,Calm,-,N/A,,Light Drizzle,0,2012-10-09 03:00:00
10:00 PM,77.0,73.4,89,29.92,6.2,Calm,Calm,-,N/A,,Scattered Clouds,0,2012-10-09 04:00:00
11:00 PM,77.0,73.4,89,29.89,-9999.0,Calm,Calm,-,N/A,,Light Drizzle,0,2012-10-09 05:00:00